STARLINK-4588, 53641

Orbit data source: Space-Track

STARLINK-4588, 53641 is a payload satellite owned by SpaceX/Seattle (US) in LEO that was launched on Sun, 28 Aug 2022 UTC via an FALCON 9 launch vehicle from the Air Force Eastern Test Range (AFETR). Payload-class satellites include a variety of spacecraft equipped with specific instruments for various scientific and technological missions. These include communications satellites like Starlink; space stations such as the ISS; scientific satellites like the Hubble; Earth observation satellites from companies like Planet Labs, Umbra, and HawkEye 360; GPS; miniature CubeSats for education and research; and military/defense satellites.

Loading next visibility...
Identifier
53641, 2022-104BF
Orbit
LEO
Country
Flag of USUS
Related business
Manufacturer
SpaceX/Seattle
Mission
Operational Commercial Communications
Bus & Motor
STARLINK, Unknown motor
Mass
300 kg wet, ~290 kg dry
Launch date (UTC)
2022-08-28 (4 years ago)
Launch vehicle
FALCON 9
Launch site
Air Force Eastern Test Range (AFETR)
Object type
Payload
Rocket body
Debris
Shape & HBR
Box + 1 Pan, 10.1 m
Radar Cross Section
13.562 m², Large (>1 m²)

Expand to show TLE details & history
Last TLE update: 17 hours ago

TLE from 17 hours ago
0 STARLINK-4588
1 53641U 22104BF  26072.37581616 -.00000131  00000-0  98781-5 0  9996
2 53641  53.2169 207.4376 0001356  83.0404 277.0742 15.08839215196782
Epoch: 2026-03-13T09:01Z
TLE epoch observation values (Epoch: 2026-03-13T09:01:10.516Z)
Latitude
-0.00004°
Longitude
-98.86849°
Altitude
540.528 km
Speed
7.593 km/s
True Right ascension
13h 49m 45s
True Declination
0° 00' 00"
Sunlit
Object was in full shadow at epoch
Visualization orbit readout
Latitude
Unknown
Longitude
Unknown
Altitude
Unknown
Speed
Unknown
Apparent Right ascension
Unknown
Apparent Declination
Unknown
Sunlit
N/A
Visualization observer readout
Local Sidereal Time
06:41:37
Azimuth
Unknown
Elevation
Unknown
Doppler factor
Unknown
Orbital elements
Apogee altitude
540.929 km
Perigee altitude
539.053 km
Semi-major axis
6,918.128 km
Eccentricity
0.00014
Inclination
53.2169°
RAAN
207.4376°
Arg. of periapsis
83.0404°
True anomaly
277.05878°
Mean anomaly
277.0742°
Eccentric anomaly
277.06649°
Mean motion
3.7719 °/min
Orbital period
95.44 mins
BSTAR
0.0000098781
Loading maneuver chart data...
Computing Atmospheric mass density...
Loading historical data...
Loading historical data...
Loading historical data...
Loading historical data...
Loading historical data...
Loading historical data...
Loading historical data...

Documentation

Showing up to 5 results
|